{"data":{"norad_id":47883,"intl_designator":"2021-021Z","name":"STARLINK-2342","alt_names":[],"object_type":"PAYLOAD","status":"ACTIVE","operator":null,"country":"US","launch_date":"2021-03-14","launch_site_code":"AFETR","launch_vehicle":null,"mission":null,"orbit_class":"UNKNOWN","rcs_meters":null,"size_class":null,"mass_kg":null,"dimensions":null,"purposes":["comms"],"wikipedia_slug":null,"has_3d_model":false,"image_url":null,"decayed_at":null,"tle_current":{"epoch":"2026-08-09T07:03:06.507648Z","epoch_age_seconds":3676539,"freshness":"OLD","line1":"1 47883U 21021Z   26221.29382532  .10265833  12504-4  34182-3 0  9998","line2":"2 47883  53.1310 236.0585 0005207 288.2631  71.7852 16.44437377300388","mean_motion":16.44437377,"eccentricity":0.0005207,"inclination_deg":53.131,"raan_deg":236.0585,"arg_perigee_deg":288.2631,"mean_anomaly_deg":71.7852,"bstar":0.00034182,"rev_number":30038,"period_min":87.567943914474,"perigee_km":150.62372570672,"apogee_km":157.42631923692,"semimajor_km":6532.1620224718,"source":"CELESTRAK","updated_at":"2026-08-09T09:00:59.014816Z"}}}